NOAA 16 DEB

Satellite information

Favourite Embed

Satellite Type and Status

DEBRISIN ORBIT

Key statistics

Satellite NOAA 16 DEB at a glance.

Uptime

8995

Days in orbit

Revolutions

≈ 14.4

Per day

Orbit

SSO

Sun Synchronous Orbit

Inclination

99.1

Latest

Satellite identification and parameters

Extended collection of information and parameters for NOAA 16 DEB.

Object identification

Identified? True

Debris? True

Object name: NOAA 16 DEB

International designator: 2000-055QF

Object number (NORAD): 42339

Object ID (CCSDS): 42339

Country: UNITED STATES OF AMERICA (US)

Current information (Y/N): Y

RCS size: SMALL

Orbital parameters

Period: 100.172 minutes

Inclination: 99.113 deg

SMA: 7144.821 km

Apoapsis: 779.869 km

Periapsis: 753.502 km

RAAN: 323.711 deg

Eccentricy: 0.0018452

Argument of periapsis: 57.073 deg

Mean anomaly: 303.2226 deg

Mean motion: 14.37526206 rev/day

Mean motion (dot): 0.00007396 rev/day2

B* drag term: 0.0024775 1/REarth

Two-line elements (TLE)

Creation date: May 4, 2025, 5:21 p.m.

Reference frame: TEME

Reference center: EARTH

Epoch: May 4, 2025, 6:48 a.m. UTC

TLE line 0: 0 NOAA 16 DEB

TLE line 1: 1 42339U 00055QF 25124.28346875 .00007396 00000-0 24775-2 0 9990

TLE line 2: 2 42339 99.1130 323.7110 0018452 57.0730 303.2226 14.37526206468658

Live tracking on map

Real-time ground track for satellite NOAA 16 DEB.

In-orbit conjunctions

A list of the most updated potential collisions computed for object NOAA 16 DEB.

Target Orbit TCA Probability of collision Miss distance Type
COSMOS 1850 LEO 2025-03-23 05:02:45 0.0001008189 153.0 (m) PAYLOAD
CZ-6A DEB LEO 2024-11-23 15:36:39 0.0002759404 404.0 (m) DEBRIS
STELLA SSO 2024-07-02 13:56:41 0.0001821143 565.0 (m) PAYLOAD
COSMOS 1570 LEO 2024-06-24 08:39:22 0.0001195435 822.0 (m) PAYLOAD

Associated space launch

The NOAA K, L and M POES satellites begin the fifth generation of improved environmental monitoring in support of NOAA missions. The instrument payload has significant improvements and additions/deletions. The instrument changes have effected the spacecraft subsystems and data formats.

NOAA 16 DEB was lifted into orbit during the mission ‘Titan II SLV | NOAA 16’, on board a Titan II SLV space rocket.

The launch took place on Sept. 21, 2000, 10:22 a.m. from Space Launch Complex 4W.

For more information about the launch, click the button.

Launch to space Titan II SLV | NOAA 16
Titan II SLV | NOAA 16

Agency: N/A

Status: Launch Successful

Launch date: Sept. 21, 2000, 10:22 a.m. UTC

Rocket: Titan II SLV

Launch pad: Space Launch Complex 4W

Location: Vandenberg SFB, CA, USA

...

Latest news about this satellite

There are no fresh news available about this satellite. Check back as we update our databases every day.


Newsletter sign-up

Weekly statistics, charts and insights to help you stay on top of the space industry.